Weather in Yaptik-Sale

Russia / Yamalo-Nenets Autonomous Okrug     69°23′08″N   72°31′33″E
temp.,
°C
wind,
m/s
gust,
m/s
humid.,
%
clouds,
%
prec.,
mm/h
press.,
hPa
HPBL,
m
27 february, sat
sat2723:00−20sw229995 0.1 102122
02:00−23sw1110095 0.1 102120
05:00−21s229894 0.1 102132
08:00−22s3410092 0.0 102286
11:00−21sse369895 0.1 1021165
14:00−22s3699100 0.0 1022165
17:00−22s4799100 0.0 1022139
20:00−22s5899100 0.0 1021243
28 february, sun
sun2823:00−23s611100100 0.0 1021263
02:00−24s61099100 0.0 1020237
05:00−24s611100100 0.0 1020250
08:00−24s712100100 0.0 1019289
11:00−23s71297100 0.0 1019333
14:00−22s71295100 0.0 1019376
17:00−22s71294100 0.0 1019378
20:00−23s71294100 0.0 1017373
1 march, mon
mon123:00−23s71292100 0.0 1017373
02:00−24s61193100 0.0 1016378
05:00−24s61194100 0.0 1015345
08:00−25s61096100 0.0 1014318
11:00−24s61096100 0.0 1012372
14:00−23s71194100 0.0 1011435
17:00−23s61295100 0.0 1010386
20:00−23s71295100 0.0 1008383
2 march, tue
tue223:00−22s81395100 0.0 1006415
02:00−21s81494100 0.0 1005478
05:00−20s91594100 0.0 1004488
08:00−20s91793100 0.0 1002520
11:00−19s101696100 0.2 1003624
14:00−17s91495100 1.1 1003735
17:00−17s91494100 1.8 1003722
20:00−16s91494100 0.6 1003692
3 march, wed
wed323:00−16s91495100 1.4 1003625
02:00−17s91495100 0.9 1003561
05:00−18s91494100 1.4 1003521
08:00−18s91494100 0.3 1003517
11:00−18s91495100 0.6 1004556
14:00−18s91495100 0.6 1004603
17:00−17s91495100 1.1 1004621
20:00−17s91395100 0.8 1004612